User: anonymous   Login
Location: Newark
(35.6799°N, 139.7636°E)
Time: 21:44:29
(UTC+00:00)
Language:

Courier 1B - Orbit

View from above orbital plane
View from above orbital plane
View from above satellite
View from above satellite

Ground track
Ground track

The orbit data is extracted from the following two-line orbital elements,

1    58U 60013A   19341.70963122  .00000094  00000-0  95005-5 0  9998
2    58  28.3302 352.4678 0164875 273.5294  84.6408 13.46319561913159
Epoch (UTC): 07 December 2019 17:01:52
Eccentricity: 0.0164875
inclination: 28.3302°
perigee height: 963 km
apogee height: 1209 km
right ascension of ascending node: 352.4678°
argument of perigee: 273.5294°
revolutions per day: 13.46319561
mean anomaly at epoch: 84.6408°
orbit number at epoch: 91315

The dashed part of the orbit path shows where the satellite is in the earth's shadow,  

DLR